C/2021 C6 ( Lemmon )

Japanese version
Home page
Updated on July 3, 2021

---------------------------------------------------------------------

* Profile

Discovery Date February 7, 2021
Magnitude 20.8 mag
Discoverer Mt. Lemmon Survey

* Pictures

* Orbital Elements

Epoch 2021 July 5.0 TT = JDT 2459400.5
T 2021 Nov. 13.34152 TT                                 Rudenko
q   3.2712781            (2000.0)            P               Q
z  -0.0006230      Peri.  203.56669     -0.63040745     +0.76632377
 +/-0.0000007      Node   332.15534     +0.74770175     +0.64231040
e   1.0020381      Incl.  164.62583     +0.20863495     +0.01361039
From 152 observations 2021 Jan. 23-June 7, mean residual 0".5.

* Magnitudes Graph

        m1 = 11.5 + 5 log d + 10.0 log r

---------------------------------------------------------------------

The orbital elements are published on M.P.E.C. 2021-N06.
The magnitudes graphs are made with Comet for Windows.

---------------------------------------------------------------------

Copyright(C) Seiichi Yoshida (comet@aerith.net). All rights reserved.